GW4557 Weather Reports


time (UTC)temp
C
wind
direction
speed
KPH
gust
KPH
rain 1hr
cm
rain 24hr
cm
rain mn
cm
humidity
%
barometer
mb
20260506073204 10 342 11.3 27.4 0.00 0.00 0.00 91 1009.8
20260506072704 10 340 16.1 27.4 0.00 0.00 0.00 91 1009.7
20260506071704 10 341 16.1 27.4 0.00 0.00 0.00 91 1009.6
20260506071206 10 347 11.3 25.7 0.00 0.00 0.00 91 1009.6
20260506070704 10 328 11.3 24.1 0.00 0.00 0.00 91 1009.6
20260506070204 10 324 12.9 22.5 0.00 0.00 0.00 91 1009.5
20260506061204 10 334 14.5 24.1 0.00 0.00 0.00 92 1009.1
20260506060204 10 334 12.9 25.7 0.00 0.00 0.00 92 1009.1
20260506051203 10 341 16.1 25.7 0.00 0.00 0.00 93 1008.6
20260506050704 10 330 14.5 24.1 0.00 0.00 0.00 93 1008.6
20260506050204 10 333 12.9 22.5 0.00 0.00 0.00 93 1008.5
20260506044704 10 348 9.7 16.1 0.00 0.00 0.00 93 1008.5
20260506044203 10 343 9.7 16.1 0.00 0.00 0.00 93 1008.5
20260506043704 10 344 8.0 19.3 0.00 0.00 0.00 93 1008.5
20260506043203 10 332 8.0 19.3 0.00 0.00 0.00 93 1008.5
20260506042704 10 339 9.7 19.3 0.00 0.00 0.00 93 1008.4
20260506041704 10 344 9.7 19.3 0.00 0.00 0.00 93 1008.5
20260506041204 10 335 11.3 20.9 0.00 0.00 0.00 93 1008.5
20260506040704 10 336 11.3 20.9 0.00 0.00 0.00 93 1008.5
20260506040204 10 350 8.0 16.1 0.00 0.00 0.00 93 1008.5
20260506035704 11 336 9.7 19.3 0.00 0.00 0.00 93 1008.4
20260506035204 11 336 8.0 20.9 0.00 0.00 0.00 93 1008.4
20260506034704 11 354 12.9 20.9 0.00 0.00 0.00 93 1008.4
20260506034204 11 342 11.3 20.9 0.00 0.00 0.00 93 1008.4
20260506033704 11 340 9.7 19.3 0.00 0.00 0.00 93 1008.4
20260506033204 11 344 9.7 20.9 0.00 0.00 0.00 93 1008.4
20260506032704 11 340 9.7 20.9 0.00 0.00 0.00 93 1008.5
20260506032204 11 343 11.3 19.3 0.00 0.00 0.00 93 1008.5
20260506031704 11 331 14.5 20.9 0.00 0.00 0.00 93 1008.5
20260506031204 11 330 11.3 20.9 0.00 0.00 0.00 93 1008.5
20260506030704 11 337 9.7 16.1 0.00 0.00 0.00 93 1008.5
20260506030204 11 343 8.0 14.5 0.00 0.00 0.00 93 1008.5
20260506025703 11 343 8.0 14.5 0.00 0.00 0.00 93 1008.5
20260506025204 11 337 4.8 12.9 0.00 0.00 0.00 93 1008.5
20260506024704 11 337 8.0 11.3 0.00 0.00 0.00 93 1008.5
20260506024204 11 334 6.4 11.3 0.00 0.00 0.00 93 1008.5
20260506023204 11 343 8.0 11.3 0.00 0.00 0.00 93 1008.5
20260506022704 11 334 6.4 9.7 0.00 0.00 0.00 93 1008.5
20260506022204 11 349 4.8 9.7 0.00 0.00 0.00 93 1008.5
20260506021204 11 357 4.8 8.0 0.00 0.00 0.00 93 1008.5
20260506020704 10 346 3.2 4.8 0.00 0.00 0.00 93 1008.5
20260506020204 10 314 1.6 8.0 0.00 0.00 0.00 93 1008.5
20260506015203 11 341 3.2 8.0 0.00 0.00 0.00 93 1008.6
20260506014704 11 330 4.8 9.7 0.00 0.00 0.00 93 1008.6
20260506014204 11 336 4.8 9.7 0.00 0.00 0.00 93 1008.6
20260506013204 10 337 3.2 11.3 0.00 0.00 0.00 93 1008.7
20260506012704 11 334 4.8 11.3 0.00 0.00 0.00 93 1008.7
20260506012204 11 326 8.0 12.9 0.00 0.00 0.00 93 1008.7
20260506011704 11 327 9.7 12.9 0.00 0.00 0.00 93 1008.7
20260506011204 11 326 9.7 11.3 0.00 0.00 0.00 93 1008.8
20260506010704 11 329 6.4 11.3 0.00 0.00 0.00 93 1008.8
20260506010204 11 329 8.0 11.3 0.00 0.00 0.00 93 1008.8
20260506005703 11 326 8.0 11.3 0.00 0.00 0.00 93 1008.9
20260506004204 11 328 8.0 9.7 0.00 0.00 0.00 93 1009.0
20260506003703 11 300 6.4 9.7 0.00 0.00 0.00 93 1009.1
20260506003204 11 301 8.0 9.7 0.00 0.00 0.00 93 1009.1
20260506002704 11 302 8.0 9.7 0.00 0.00 0.00 93 1009.2
20260506002204 11 296 4.8 4.8 0.00 0.00 0.00 93 1009.2
20260506000703 11 279 1.6 9.7 0.00 0.00 0.00 93 1009.2
20260506000205 10 216 3.2 9.7 0.00 0.00 0.00 93 1009.2
20260505235704 10 205 4.8 9.7 0.00 0.00 0.00 93 1009.1
20260505234704 10 202 4.8 8.0 0.00 0.00 0.00 93 1009.1
20260505234204 10 209 3.2 8.0 0.00 0.00 0.00 93 1009.1
20260505233704 10 227 3.2 8.0 0.00 0.00 0.00 93 1009.2
20260505233204 10 247 4.8 8.0 0.00 0.00 0.00 93 1009.2
20260505232704 10 254 4.8 8.0 0.00 0.00 0.00 93 1009.2
20260505232204 10 254 4.8 8.0 0.00 0.00 0.00 93 1009.2
20260505231204 10 239 4.8 8.0 0.00 0.00 0.00 93 1009.2
20260505230704 10 251 4.8 8.0 0.00 0.00 0.00 92 1009.2
20260505230204 10 241 8.0 9.7 0.00 0.00 0.00 92 1009.3
20260505225204 10 234 8.0 9.7 0.00 0.00 0.00 92 1009.4
20260505224204 10 210 4.8 9.7 0.00 0.00 0.00 92 1009.4
20260505223704 10 210 4.8 11.3 0.00 0.00 0.00 92 1009.4
20260505223204 10 227 8.0 11.3 0.00 0.00 0.00 92 1009.4
20260505222704 10 252 8.0 9.7 0.00 0.00 0.00 92 1009.4
20260505222204 10 255 8.0 11.3 0.00 0.00 0.00 92 1009.3
20260505221704 10 253 8.0 11.3 0.00 0.00 0.00 92 1009.4
20260505221203 10 257 9.7 12.9 0.00 0.00 0.00 92 1009.5
20260505220704 10 256 9.7 12.9 0.00 0.00 0.00 92 1009.5
20260505220204 10 243 9.7 12.9 0.00 0.00 0.00 91 1009.6
20260505215703 10 237 9.7 11.3 0.00 0.00 0.00 91 1009.7
20260505215203 10 243 8.0 11.3 0.00 0.00 0.00 91 1009.8
20260505214703 10 234 8.0 11.3 0.00 0.00 0.00 91 1009.8
20260505214204 10 224 8.0 11.3 0.00 0.00 0.00 91 1010.0
20260505213704 10 218 8.0 9.7 0.00 0.00 0.00 91 1010.0
20260505213204 10 215 4.8 11.3 0.00 0.00 0.00 91 1010.1
20260505212704 10 242 8.0 11.3 0.00 0.00 0.00 91 1010.1
20260505212204 10 241 8.0 11.3 0.00 0.00 0.00 90 1010.2
20260505211705 11 243 8.0 11.3 0.00 0.00 0.00 90 1010.2
20260505211204 11 237 8.0 11.3 0.00 0.00 0.00 90 1010.3
20260505210704 11 242 8.0 9.7 0.00 0.00 0.00 89 1010.3
20260505210205 11 243 4.8 9.7 0.00 0.00 0.00 89 1010.4
20260505205704 11 248 6.4 9.7 0.00 0.00 0.00 88 1010.4
20260505205204 11 243 6.4 11.3 0.00 0.00 0.00 88 1010.4
20260505204704 11 247 8.0 12.9 0.00 0.00 0.00 88 1010.4
20260505203704 12 259 9.7 16.1 0.00 0.00 0.00 88 1010.4
20260505203204 12 254 9.7 12.9 0.00 0.00 0.00 87 1010.4
20260505202704 12 250 6.4 14.5 0.00 0.00 0.00 86 1010.4
20260505202204 12 252 8.0 14.5 0.00 0.00 0.00 86 1010.4
20260505201704 12 256 9.7 14.5 0.00 0.00 0.00 86 1010.3
20260505201204 12 247 9.7 16.1 0.00 0.00 0.00 86 1010.3
20260505200704 12 260 11.3 16.1 0.00 0.00 0.00 86 1010.3
20260505195704 12 263 9.7 16.1 0.00 0.00 0.00 87 1010.2
20260505195204 12 263 9.7 16.1 0.00 0.00 0.00 86 1010.1
20260505194704 12 266 11.3 14.5 0.00 0.00 0.00 86 1010.0
20260505194204 12 266 11.3 19.3 0.00 0.00 0.00 85 1010.0
20260505193704 12 265 9.7 19.3 0.00 0.00 0.00 84 1010.0
20260505193204 12 260 11.3 20.9 0.00 0.00 0.00 84 1009.9
20260505192704 12 261 12.9 20.9 0.00 0.00 0.00 83 1010.0
20260505192204 12 260 12.9 20.9 0.00 0.00 0.00 83 1009.9
20260505191704 12 259 14.5 22.5 0.00 0.00 0.00 82 1009.9
20260505191204 13 259 14.5 27.4 0.00 0.00 0.00 82 1009.8
20260505190704 13 256 16.1 27.4 0.00 0.00 0.00 81 1009.8
20260505190204 13 254 17.7 27.4 0.00 0.00 0.00 81 1009.9
20260505185703 13 258 17.7 25.7 0.00 0.00 0.00 80 1009.8
20260505185205 13 261 19.3 27.4 0.00 0.00 0.00 80 1009.8
20260505184204 13 258 20.9 29.0 0.00 0.00 0.00 79 1009.8
20260505183704 14 249 19.3 27.4 0.00 0.00 0.00 78 1009.8
20260505183203 14 255 19.3 27.4 0.00 0.00 0.00 77 1009.7
20260505182703 14 248 16.1 25.7 0.00 0.00 0.00 77 1009.7
20260505182204 14 252 17.7 32.2 0.00 0.00 0.00 76 1009.7
20260505181703 14 252 19.3 32.2 0.00 0.00 0.00 76 1009.7
20260505180704 15 258 17.7 29.0 0.00 0.00 0.00 75 1009.7
20260505180204 15 260 22.5 33.8 0.00 0.00 0.00 75 1009.8
20260505175704 15 254 20.9 33.8 0.00 0.00 0.00 74 1009.8
20260505175204 15 262 24.1 32.2 0.00 0.00 0.00 71 1009.8
20260505174704 15 270 20.9 32.2 0.00 0.00 0.00 69 1009.8
20260505174204 16 266 17.7 33.8 0.00 0.00 0.00 70 1009.8
20260505173204 16 255 20.9 33.8 0.00 0.00 0.00 70 1009.8
20260505172704 16 264 22.5 35.4 0.00 0.00 0.00 69 1009.7
20260505172204 16 248 22.5 35.4 0.00 0.00 0.00 71 1009.7
20260505171704 16 254 20.9 33.8 0.00 0.00 0.00 72 1009.8
20260505165704 16 248 27.4 40.2 0.00 0.03 0.00 69 1009.8
20260505165203 16 269 27.4 40.2 0.00 0.03 0.00 69 1009.9
20260505164704 17 260 27.4 38.6 0.00 0.03 0.00 70 1009.9
20260505164204 16 279 27.4 40.2 0.00 0.03 0.00 70 1009.9
20260505163704 17 278 29.0 40.2 0.00 0.03 0.00 68 1010.0
20260505162703 17 259 29.0 40.2 0.00 0.03 0.00 67 1009.9
20260505161204 17 251 29.0 45.1 0.00 0.03 0.00 70 1009.9
20260505160704 17 250 27.4 45.1 0.00 0.03 0.00 70 1009.9
20260505153204 17 244 25.7 40.2 0.00 0.03 0.00 68 1009.8
20260505152704 17 260 30.6 40.2 0.00 0.03 0.00 70 1009.9
20260505152203 17 246 25.7 40.2 0.00 0.03 0.00 69 1009.9
20260505151704 17 239 22.5 41.8 0.00 0.03 0.00 68 1009.9
20260505151204 17 236 24.1 41.8 0.00 0.03 0.00 68 1009.9
20260505150704 17 263 27.4 40.2 0.00 0.03 0.00 68 1009.9
20260505150204 17 253 25.7 40.2 0.00 0.03 0.00 70 1009.9
20260505140204 18 250 24.1 38.6 0.00 0.03 0.00 70 1010.0
20260505124704 17 240 24.1 38.6 0.00 0.03 0.00 68 1010.1
20260505124205 17 244 25.7 37.0 0.00 0.03 0.00 69 1010.1
20260505123704 17 236 20.9 37.0 0.00 0.03 0.00 72 1010.1
20260505123204 17 233 22.5 37.0 0.00 0.03 0.00 71 1010.1
20260505122704 17 245 22.5 37.0 0.00 0.03 0.00 69 1010.1
20260505121703 17 256 19.3 37.0 0.00 0.03 0.00 70 1010.0
20260505120704 17 248 22.5 33.8 0.00 0.03 0.00 71 1010.1
20260505120205 17 254 20.9 32.2 0.00 0.03 0.00 70 1010.1
20260505115704 17 240 19.3 32.2 0.00 0.03 0.00 71 1010.1
20260505115204 17 255 20.9 32.2 0.00 0.03 0.00 71 1010.1
20260505114704 17 260 22.5 32.2 0.00 0.03 0.00 72 1010.1
20260505113704 17 271 22.5 33.8 0.00 0.03 0.00 73 1010.2
20260505113204 16 269 25.7 33.8 0.00 0.03 0.00 74 1010.2
20260505112704 16 237 19.3 32.2 0.00 0.03 0.00 73 1010.2
20260505112204 17 247 16.1 25.7 0.00 0.05 0.00 73 1010.3
20260505111704 16 270 19.3 32.2 0.00 0.05 0.00 79 1010.3
20260505110703 16 252 20.9 32.2 0.00 0.05 0.00 73 1010.4
20260505110205 16 260 19.3 32.2 0.00 0.05 0.00 70 1010.4
20260505102204 16 269 20.9 25.7 0.00 0.15 0.00 74 1010.5
20260505101704 16 277 17.7 25.7 0.00 0.15 0.00 73 1010.5
20260505101204 16 284 14.5 24.1 0.00 0.18 0.00 71 1010.5
20260505100704 16 289 11.3 25.7 0.00 0.20 0.00 72 1010.5
20260505100204 16 288 16.1 25.7 0.00 0.20 0.00 73 1010.5
20260505095704 17 278 16.1 25.7 0.00 0.20 0.00 72 1010.5
20260505095204 15 287 11.3 20.9 0.00 0.23 0.00 75 1010.5
20260505094704 16 330 8.0 20.9 0.00 0.23 0.00 75 1010.5
20260505094203 16 306 16.1 22.5 0.00 0.23 0.00 75 1010.5
20260505093704 16 305 11.3 27.4 0.00 0.25 0.00 72 1010.6
20260505093204 16 297 16.1 27.4 0.00 0.28 0.00 72 1010.5
20260505092704 16 306 14.5 27.4 0.00 0.28 0.00 74 1010.5
20260505092204 16 282 19.3 27.4 0.00 0.30 0.00 75 1010.5
20260505091704 16 279 16.1 22.5 0.00 0.33 0.00 76 1010.5
20260505091204 16 292 11.3 25.7 0.00 0.36 0.00 77 1010.5
20260505090704 16 265 19.3 25.7 0.00 0.38 0.00 75 1010.5
20260505090204 16 291 16.1 27.4 0.00 0.41 0.00 75 1010.5
20260505085704 16 286 19.3 27.4 0.00 0.43 0.00 75 1010.6
20260505085204 16 291 11.3 22.5 0.00 0.43 0.00 77 1010.5
20260505084204 15 279 11.3 22.5 0.00 0.48 0.00 78 1010.6
20260505083704 15 300 14.5 22.5 0.00 0.51 0.00 77 1010.6
20260505083204 15 281 12.9 22.5 0.00 0.53 0.00 78 1010.6
20260505082704 15 300 11.3 22.5 0.00 0.56 0.00 78 1010.6
20260505082203 15 302 9.7 22.5 0.00 0.58 0.00 78 1010.5
20260505081204 15 305 19.3 24.1 0.00 0.61 0.00 77 1010.5
20260505080704 15 308 14.5 25.7 0.00 0.61 0.00 79 1010.5
20260505075704 15 297 17.7 24.1 0.00 0.64 0.00 80 1010.6
20260505075204 15 288 16.1 24.1 0.00 0.64 0.00 82 1010.6
20260505074704 15 313 16.1 24.1 0.00 0.66 0.00 82 1010.6
20260505074203 15 317 16.1 27.4 0.00 0.66 0.00 82 1010.5
20260505073704 15 301 19.3 27.4 0.00 0.66 0.00 83 1010.6